[[{"header":{"parameterUnit":"m.s-1","parameterCategory":1,"la1":30.2991,"la2":30.254,"lo1":-89.0895,"lo2":-89.0444,"dy":0.0017,"dx":0.0017,"nx":28,"ny":28,"refTime":"2024-10-14T21:00:00:Z","depth":0,"parameterNumber":2,"parameterNumberName":"U-component_of_WINDS"},"data":[0,0,0,0,0,0,0,0,0,0,0,0,0,0,0,0,0,0,0,0,0,0,0,0,0,0,0,0,0,0,0,0,0,0,0,0,0,0,0,0,0,0,0,0,0,0,0,0,0,0,0,0,0,0,0,0,0,0,-3.2646,-3.2647,0,-3.2658,-3.2658,-3.2658,-3.2573,-3.2571,-3.2568,-3.2566,-3.258,-3.2582,-3.2585,0,0,0,0,0,0,0,0,0,0,0,0,0,-3.2551,-3.2554,-3.2646,-3.2647,-3.2647,-3.2658,-3.2658,-3.2658,-3.2574,-3.2571,-3.2568,-3.2565,-3.2579,-3.2582,-3.2585,0,0,0,0,0,0,0,0,0,0,0,0,0,-3.2581,-3.2554,-3.2646,-3.2606,-3.2602,-3.2658,-3.2658,-3.2658,-3.2574,-3.2571,-3.2567,-3.2564,-3.2578,-3.2582,-3.2585,-3.2681,0,0,-3.2597,-3.2599,0,0,0,0,0,0,0,0,-3.2579,-3.2584,-3.2612,-3.2609,-3.2605,-3.261,-3.2629,-3.2666,-3.2575,-3.2585,-3.2566,-3.2562,-3.2593,-3.2595,-3.2605,-3.2682,-3.2682,-3.2598,-3.26,-3.2602,-3.2603,0,0,0,0,0,0,0,-3.2577,-3.2583,-3.2651,-3.2612,-3.2608,-3.2587,-3.2587,-3.2636,-3.2609,-3.2584,-3.2578,-3.258,-3.259,-3.2602,-3.2605,-3.2683,-3.2597,-3.2601,-3.2603,-3.2605,-3.2836,-3.284,0,0,0,0,0,0,-3.2581,-3.2582,-3.2651,-3.2651,-3.2583,-3.2592,-3.2592,-3.2612,-3.2608,-3.2604,-3.2583,-3.2576,-3.2597,-3.2601,-3.2605,-3.2715,-3.2602,-3.2605,-3.2607,-3.2832,-3.2837,-3.2841,0,0,0,0,0,0,-3.2579,-3.2588,-3.265,-3.2615,-3.2622,-3.2597,-3.2621,-3.2614,-3.2626,-3.2608,-3.2603,-3.26,-3.2594,-3.26,-3.2662,-3.2715,-3.2607,-3.2611,-3.2828,-3.2834,-3.2839,-3.2938,0,0,0,0,0,0,-3.2577,-3.2587,-3.2624,-3.2617,-3.2624,-3.2707,-3.2624,-3.2617,-3.2633,-3.2623,-3.2622,-3.2618,-3.2592,-3.2657,-3.2666,-3.2718,-3.2614,-3.2823,-3.283,-3.2837,-3.293,-3.2946,-3.296,0,0,0,0,0,-3.2573,-3.2652,-3.2626,-3.2635,-3.2668,-3.2711,-3.2715,-3.2682,-3.2637,-3.2673,-3.2661,-3.2618,-3.2708,-3.2664,-3.2674,-3.2728,-3.2819,-3.2828,-3.2836,-3.2923,-3.2943,-3.296,0,0,0,0,0,0,-3.2667,-3.265,-3.2621,-3.27,-3.2707,-3.2696,-3.2741,-3.2705,-3.2726,-3.2716,-3.2676,-3.2676,-3.2745,-3.2743,-3.2694,-3.2819,-3.2756,-3.2767,-3.2818,-3.2837,-3.2852,-3.2851,-3.2617,0,0,0,0,0,-3.2696,-3.2732,-3.2715,-3.2786,-3.2791,-3.2766,-3.2783,-3.2757,-3.2763,-3.2766,-3.2759,-3.2767,-3.2796,-3.2817,-3.2843,-3.2929,-3.2927,-3.2971,-3.2986,-3.2999,-3.3009,-3.3052,-3.3071,-3.2869,-3.2869,-3.2869,0,0,-3.2758,-3.2753,-3.2778,-3.2805,-3.2807,-3.2844,-3.2769,-3.2812,-3.2839,-3.2773,-3.283,-3.2826,-3.2832,-3.2906,-3.2939,-3.2906,-3.3064,-3.301,-3.302,-3.3023,-3.3063,-3.3082,-3.3099,-3.2875,-3.2874,-3.2873,0,0,-3.2889,-3.289,-3.2948,-3.2951,-3.2956,-3.2938,-3.2952,-3.2946,-3.294,-3.2997,-3.2948,-3.298,-3.3032,-3.3038,-3.3048,-3.318,-3.314,-3.319,-3.3269,-3.3312,-3.3328,-3.3342,-3.3387,-3.3404,-3.3199,-3.32,-3.32,0,-3.2965,-3.3019,-3.2982,-3.3028,-3.304,-3.2981,-3.3039,-3.3045,-3.3059,-3.3069,-3.3032,-3.3095,-3.3095,-3.3169,-3.3201,-3.3212,-3.3226,-3.3189,-3.3329,-3.3342,-3.3355,-3.3397,-3.3415,-3.3205,-3.3205,-3.3204,-3.3204,0,-3.3112,-3.315,-3.3196,-3.3209,-3.3227,-3.3279,-3.325,-3.3272,-3.3245,-3.3231,-3.3289,-3.3287,-3.3311,-3.3327,-3.3302,-3.3397,-3.3377,-3.3336,-3.327,-3.338,-3.342,-3.3436,-3.3214,-3.3212,-3.321,-3.3208,0,0,-3.3302,-3.3293,-3.331,-3.3314,-3.3314,-3.3343,-3.3392,-3.3415,-3.3434,-3.3445,-3.3485,-3.353,-3.3491,-3.3502,-3.3476,-3.3514,-3.3617,-3.3468,-3.3467,-3.3494,-3.372,-3.375,-3.377,-3.3591,-3.3594,-3.3597,-3.3719,0,-3.3429,-3.351,-3.3478,-3.3563,-3.3596,-3.354,-3.3582,-3.3587,-3.3575,-3.3602,-3.3589,-3.3621,-3.3568,-3.3574,-3.3609,-3.3597,-3.3661,-3.3588,-3.3626,-3.3628,-3.3625,-3.3791,-3.3823,-3.3939,-3.3734,-3.3737,-3.3739,0,-3.3587,-3.3603,-3.3691,-3.3683,-3.3696,-3.3734,-3.3751,-3.3778,-3.3782,-3.377,-3.3782,-3.3748,-3.3795,-3.3731,-3.3795,-3.3745,-3.3759,-3.3756,-3.3759,-3.376,-3.3689,-3.3795,-3.3975,-3.3992,-3.3763,-3.3761,-3.376,0,-3.3715,-3.3759,-3.3816,-3.3822,-3.3815,-3.3843,-3.3841,-3.3841,-3.3856,-3.3872,-3.3881,-3.3902,-3.3913,-3.3931,-3.3903,-3.3859,-3.397,-3.3904,-3.3961,-3.3962,-3.3986,-3.3984,-3.4169,-3.3998,-3.3997,-3.3997,-3.3997,0,-3.3859,-3.3914,-3.3873,-3.3908,-3.3968,-3.3931,-3.3991,-3.3984,-3.3984,-3.4016,-3.397,-3.4002,-3.3963,-3.3991,-3.397,-3.4025,-3.4031,-3.4023,-3.4016,-3.4026,-3.4027,-3.4033,-3.4024,-3.4002,-3.4001,-3.4,-3.3999,0,-3.4012,-3.3986,-3.4045,-3.4033,-3.4031,-3.4075,-3.4065,-3.4097,-3.4081,-3.4123,-3.4131,-3.4107,-3.4137,-3.4111,-3.4141,-3.4126,-3.4198,-3.4181,-3.4197,-3.4191,-3.4249,-3.4243,-3.4443,-3.4466,-3.4282,-3.4284,-3.4286,0,-3.4104,-3.4145,-3.4137,-3.4155,-3.4155,-3.4185,-3.42,-3.4164,-3.4182,-3.4188,-3.4219,-3.4245,-3.4264,-3.4315,-3.43,-3.4323,-3.4304,-3.4373,-3.4307,-3.4315,-3.4303,-3.43,-3.4303,-3.4386,-3.4388,-3.439,-3.4391,0,-3.4271,-3.4256,-3.4278,-3.4296,-3.4314,-3.4327,-3.4336,-3.4353,-3.4317,-3.4338,-3.4368,-3.4383,-3.4412,-3.4438,-3.4455,-3.4454,-3.4416,-3.4412,-3.4426,-3.4435,-3.4442,-3.4437,-3.4231,-3.4407,-3.4406,-3.4405,-3.4404,-3.4403,-3.4395,-3.4428,-3.4426,-3.4452,-3.4455,-3.4464,-3.4493,-3.448,-3.4504,-3.4524,-3.4502,-3.4538,-3.4539,-3.4558,-3.4561,-3.4588,-3.456,-3.4581,-3.4585,-3.4591,-3.4598,-3.4439,-3.4592,-3.4591,-3.4591,-3.459,-3.459,0,-3.4557,-3.4553,-3.4577,-3.459,-3.461,-3.4573,-3.4581,-3.46,-3.4632,-3.4636,-3.4655,-3.4688,-3.4713,-3.47,-3.4721,-3.4746,-3.4729,-3.4752,-3.4749,-3.4749,-3.4623,-3.4608,-3.4765,-3.4765,-3.4765,-3.4765,-3.4765,-3.4765,-3.4644,-3.4696,-3.4681,-3.4735,-3.473,-3.4764,-3.4771,-3.4779,-3.4782,-3.4821,-3.484,-3.4831,-3.4828,-3.4849,-3.487,-3.4865,-3.4874,-3.4904,-3.4893,-3.4775,-3.4758,-3.4742,-3.4727,-3.4906,-3.4907,-3.5016,-3.5017,-3.5017]},{"header":{"parameterUnit":"m.s-1","parameterCategory":1,"la1":30.2991,"la2":30.254,"lo1":-89.0895,"lo2":-89.0444,"dy":0.0017,"dx":0.0017,"nx":28,"ny":28,"refTime":"2024-10-14T21:00:00:Z","depth":0,"parameterNumber":3,"parameterNumberName":"V-component_of_WINDS"},"data":[0,0,0,0,0,0,0,0,0,0,0,0,0,0,0,0,0,0,0,0,0,0,0,0,0,0,0,0,0,0,0,0,0,0,0,0,0,0,0,0,0,0,0,0,0,0,0,0,0,0,0,0,0,0,0,0,0,0,-5.651,-5.6511,0,-5.6575,-5.6576,-5.6576,-5.6533,-5.6531,-5.6529,-5.6527,-5.6588,-5.6591,-5.6595,0,0,0,0,0,0,0,0,0,0,0,0,0,-5.6343,-5.6347,-5.651,-5.6511,-5.6511,-5.6575,-5.6576,-5.6576,-5.6533,-5.6531,-5.6528,-5.6526,-5.6587,-5.6591,-5.6595,0,0,0,0,0,0,0,0,0,0,0,0,0,-5.6413,-5.6348,-5.651,-5.6498,-5.6497,-5.6575,-5.6576,-5.6577,-5.6534,-5.6531,-5.6528,-5.6525,-5.6585,-5.659,-5.6596,-5.6687,0,0,-5.6611,-5.6614,0,0,0,0,0,0,0,0,-5.6409,-5.6419,-5.6499,-5.6499,-5.6498,-5.6543,-5.6539,-5.6613,-5.6534,-5.652,-5.6527,-5.6524,-5.6575,-5.6581,-5.6599,-5.6689,-5.6692,-5.6612,-5.6615,-5.6617,-5.6619,0,0,0,0,0,0,0,-5.6404,-5.6416,-5.6535,-5.65,-5.65,-5.6487,-5.6494,-5.6553,-5.6563,-5.6521,-5.6518,-5.6526,-5.6574,-5.6594,-5.66,-5.6693,-5.6612,-5.6616,-5.662,-5.6622,-5.6862,-5.6865,0,0,0,0,0,0,-5.6401,-5.6412,-5.6533,-5.6537,-5.6446,-5.6493,-5.65,-5.6531,-5.6562,-5.6564,-5.6529,-5.6524,-5.6587,-5.6594,-5.6602,-5.6711,-5.6617,-5.6622,-5.6625,-5.6859,-5.6863,-5.6866,0,0,0,0,0,0,-5.6398,-5.6412,-5.6531,-5.6474,-5.6488,-5.6499,-5.6534,-5.6534,-5.6554,-5.6568,-5.6569,-5.6548,-5.6585,-5.6595,-5.6667,-5.6713,-5.6624,-5.6629,-5.6855,-5.686,-5.6865,-5.693,0,0,0,0,0,0,-5.6393,-5.6411,-5.6447,-5.6475,-5.6491,-5.6595,-5.6537,-5.6538,-5.6564,-5.6559,-5.6587,-5.6588,-5.6583,-5.6659,-5.6672,-5.6718,-5.6633,-5.6851,-5.6857,-5.6863,-5.6923,-5.6936,-5.6947,0,0,0,0,0,-5.6387,-5.6461,-5.6449,-5.6464,-5.6536,-5.6598,-5.6607,-5.6602,-5.6568,-5.6603,-5.6613,-5.6587,-5.6706,-5.6667,-5.6681,-5.6729,-5.6848,-5.6855,-5.6862,-5.6918,-5.6934,-5.6947,0,0,0,0,0,0,-5.6435,-5.6464,-5.6451,-5.6537,-5.6566,-5.6591,-5.6635,-5.6618,-5.6655,-5.6648,-5.6638,-5.6645,-5.672,-5.6732,-5.6688,-5.682,-5.6771,-5.6782,-5.6809,-5.6824,-5.6836,-5.683,-5.6637,0,0,0,0,0,-5.6456,-5.6506,-5.6528,-5.6601,-5.6617,-5.6624,-5.665,-5.6644,-5.6672,-5.6683,-5.6698,-5.6725,-5.6768,-5.6797,-5.6838,-5.6926,-5.6931,-5.6966,-5.6978,-5.6988,-5.6996,-5.7044,-5.706,-5.6891,-5.689,-5.689,0,0,-5.6499,-5.6521,-5.6552,-5.6611,-5.6633,-5.6683,-5.6634,-5.6688,-5.6725,-5.6691,-5.676,-5.6772,-5.6801,-5.6882,-5.6918,-5.6894,-5.7045,-5.6997,-5.7005,-5.7008,-5.7053,-5.7069,-5.7084,-5.6896,-5.6895,-5.6894,0,0,-5.6602,-5.6625,-5.6689,-5.6712,-5.6746,-5.6751,-5.6767,-5.6795,-5.6802,-5.6872,-5.6848,-5.6891,-5.6966,-5.6988,-5.7009,-5.7125,-5.7103,-5.7138,-5.7199,-5.7246,-5.7259,-5.7271,-5.7312,-5.7327,-5.7147,-5.7147,-5.7147,0,-5.665,-5.6727,-5.6723,-5.678,-5.6807,-5.6782,-5.6846,-5.6868,-5.6913,-5.6931,-5.6905,-5.7,-5.7018,-5.7103,-5.7132,-5.715,-5.7166,-5.7134,-5.7258,-5.727,-5.7281,-5.7319,-5.7335,-5.7151,-5.7151,-5.715,-5.715,0,-5.6784,-5.6837,-5.6885,-5.6932,-5.6964,-5.7024,-5.7028,-5.7061,-5.7053,-5.706,-5.7131,-5.7153,-5.7198,-5.7218,-5.7209,-5.7303,-5.7287,-5.726,-5.7211,-5.7301,-5.7337,-5.7352,-5.7157,-5.7156,-5.7154,-5.7153,0,0,-5.6916,-5.6964,-5.6981,-5.7002,-5.704,-5.708,-5.7139,-5.7186,-5.7214,-5.7246,-5.7295,-5.7361,-5.7337,-5.7361,-5.7355,-5.7396,-5.7486,-5.7363,-5.7364,-5.7385,-5.759,-5.7609,-5.7626,-5.7472,-5.7475,-5.7477,-5.7587,0,-5.7021,-5.7127,-5.7127,-5.7224,-5.7273,-5.7251,-5.7303,-5.7331,-5.734,-5.7381,-5.739,-5.7437,-5.7402,-5.7416,-5.7456,-5.7466,-5.7526,-5.7459,-5.7516,-5.7518,-5.7508,-5.7645,-5.7666,-5.7768,-5.7601,-5.7603,-5.7605,0,-5.7157,-5.7198,-5.73,-5.7333,-5.7353,-5.74,-5.7443,-5.7484,-5.7515,-5.7519,-5.7548,-5.7536,-5.7595,-5.7546,-5.7627,-5.7581,-5.7605,-5.7614,-5.7617,-5.7621,-5.7566,-5.7652,-5.78,-5.7815,-5.7627,-5.7626,-5.7624,0,-5.7243,-5.7323,-5.7395,-5.7414,-5.7453,-5.7487,-5.7504,-5.7533,-5.7562,-5.7599,-5.7617,-5.7661,-5.7684,-5.7717,-5.7717,-5.7682,-5.7799,-5.775,-5.7802,-5.7802,-5.7826,-5.7824,-5.798,-5.7844,-5.7844,-5.7844,-5.7843,0,-5.7359,-5.7423,-5.7434,-5.7478,-5.7549,-5.7548,-5.7617,-5.7631,-5.7658,-5.7703,-5.7687,-5.7729,-5.7727,-5.7771,-5.7771,-5.7838,-5.7848,-5.7852,-5.7851,-5.7853,-5.7852,-5.7867,-5.7859,-5.7848,-5.7847,-5.7846,-5.7845,0,-5.7466,-5.7476,-5.7553,-5.7586,-5.7595,-5.7646,-5.7672,-5.7714,-5.7723,-5.7781,-5.7794,-5.7807,-5.7857,-5.7861,-5.7918,-5.7919,-5.8,-5.7992,-5.799,-5.7988,-5.804,-5.8034,-5.8208,-5.8231,-5.8082,-5.8083,-5.8085,0,-5.7538,-5.7587,-5.7626,-5.7657,-5.7677,-5.7726,-5.7757,-5.7758,-5.779,-5.7831,-5.7867,-5.7916,-5.7955,-5.8036,-5.805,-5.8094,-5.8086,-5.8144,-5.8092,-5.8092,-5.8085,-5.8082,-5.8087,-5.8153,-5.8155,-5.8156,-5.8157,0,-5.7666,-5.767,-5.7715,-5.7763,-5.78,-5.7837,-5.7871,-5.7897,-5.7903,-5.7939,-5.7992,-5.8023,-5.8083,-5.8131,-5.8175,-5.8191,-5.8175,-5.8174,-5.8188,-5.8189,-5.8186,-5.8188,-5.8016,-5.8169,-5.8168,-5.8167,-5.8167,-5.8166,-5.7757,-5.78,-5.7835,-5.7886,-5.7913,-5.7947,-5.7988,-5.8003,-5.8048,-5.8099,-5.8097,-5.8155,-5.8186,-5.8243,-5.8263,-5.8307,-5.8287,-5.8308,-5.8313,-5.8318,-5.8323,-5.8181,-5.8315,-5.8315,-5.8315,-5.8314,-5.8314,0,-5.7883,-5.7906,-5.7953,-5.8004,-5.8044,-5.8029,-5.8067,-5.8101,-5.8153,-5.8185,-5.8225,-5.8286,-5.8334,-5.8352,-5.8399,-5.8431,-5.8424,-5.8443,-5.8439,-5.8443,-5.8338,-5.8321,-5.8447,-5.8447,-5.8447,-5.8447,-5.8447,-5.8447,-5.7954,-5.8026,-5.8034,-5.8119,-5.814,-5.8199,-5.8222,-5.8252,-5.8278,-5.8348,-5.8388,-5.8401,-5.8428,-5.8476,-5.8519,-5.8524,-5.8541,-5.8562,-5.8563,-5.8464,-5.8451,-5.8438,-5.8421,-5.8566,-5.8566,-5.8664,-5.8665,-5.8665]}]]